Flag for Germany Weather past 2 weeks in Wegberg, North Rhine-Westphalia, Germany

Now
81 °F

Passing clouds.


Feels Like: 81 °F
Forecast: 60 / 70 °F
Wind: 9 mph from Northeast

Location: Monchengladbach Airport

Current Time: Jul 24, 2014 at 3:21:59 PM

Latest Report: Jul 24, 2014 at 2:50 PM


Visibility: N/A

Pressure: 29.95 "Hg

Humidity: 45%

Dew point: 57 °F

Location of WegbergLocation

Historic Weather in Wegberg — Graph

°F

Wegberg temperature yesterday

Maximum temperature yesterday: 84 °F (at 4:20 PM)
Minimum temperature yesterday: 81 °F (at 7:50 PM)
Average temperature yesterday: 82 °F

Past Weeks' High & Low Weather Summary

 TemperatureHumidityPressure
High91 °F (Jul 19, 4:50 PM)100% (Jul 9, 2:50 PM)30.18 "Hg (Jul 9, 2:50 PM)
Low59 °F (Jul 9, 2:50 PM)29% (Jul 19, 12:50 PM)29.65 "Hg (Jul 9, 4:50 PM)
Average73 °F75%29.95 "Hg
* Reported Jul 9 2:50 PM — Jul 24 1:50 PM, Wegberg, Weather by CustomWeather, © 2014

Note: Actual official high and low records may vary slightly from our data, if they occured in-between our weather recording intervals... More about our weather records

Advertising

Wegberg weather history for previous 24 hours

 ConditionsComfort  
Time TempWeatherWind HumidityBarometerVisibility
1:50 PM
Jul 24
79 °FClear.9 mph48%29.95 "Hg10 mi
1:20 PM79 °FSunny.9 mph48%29.95 "Hg10 mi
12:50 PM77 °FSunny.10 mph51%29.98 "Hg10 mi
12:20 PM77 °FSunny.8 mph51%29.98 "Hg10 mi
11:50 AM77 °FSunny.7 mph51%29.98 "Hg10 mi
11:20 AM75 °FSunny.8 mph50%29.98 "Hg10 mi
10:50 AM75 °FSunny.8 mph50%29.98 "Hg10 mi
10:20 AM73 °FSunny.9 mph53%29.98 "Hg10 mi
9:50 AM72 °FSunny.8 mph61%29.98 "Hg10 mi
9:20 AM70 °FSunny.6 mph64%29.98 "Hg10 mi
8:50 AM68 °FPassing clouds.7 mph69%29.98 "HgN/A
8:20 AM66 °FPassing clouds.7 mph73%29.98 "HgN/A
7:50 AM66 °FPassing clouds.7 mph73%29.98 "HgN/A
7:20 AM66 °FPassing clouds.6 mph73%29.98 "HgN/A
8:20 PM
Jul 23
81 °FPassing clouds.8 mph48%29.98 "HgN/A
7:50 PM81 °FClear.8 mph48%29.98 "Hg10 mi
7:20 PM82 °FClear.8 mph45%29.98 "Hg10 mi
6:50 PM82 °FClear.7 mph45%29.98 "Hg10 mi
6:20 PM82 °FPassing clouds.9 mph48%29.98 "HgN/A
5:50 PM82 °FPassing clouds.10 mph45%29.98 "HgN/A
5:20 PM82 °FPassing clouds.10 mph48%30.01 "HgN/A
4:50 PM82 °FPassing clouds.10 mph48%30.01 "HgN/A
4:20 PM84 °FPassing clouds.10 mph45%30.01 "HgN/A
3:50 PM82 °FPassing clouds.10 mph48%30.01 "HgN/A
3:20 PM82 °FPassing clouds.12 mph48%30.01 "HgN/A
Weather by CustomWeather, © 2014

See weather overviewHow to use our weather pages